Location: Unspecified
(0.0000°N, 0.0000°E)
Time: 07:20:04
(UTC+00:00)

Vanguard 1 Rocket - Pass Details

Date: 14 December 2017
Orbit: 656 x 4222 km, 34.3° (Epoch: 14 January)

Event Time Altitude Azimuth Distance (km) Brightness Sun altitude
Rises 14:12:42 0° 258° (WSW) 3,056 10.7 49.2°
Reaches altitude 10° 14:14:57 10° 270° (W) 2,271 10.1 48.8°
Maximum altitude 14:19:29 31° 333° (NNW) 1,599 8.9 47.9°
Drops below altitude 10° 14:26:21 10° 33° (NNE) 3,493 10.1 46.5°
Sets 14:30:48 0° 42° (NE) 5,057 10.8 45.6°
